{"data":{"norad_id":66786,"intl_designator":"2025-276EA","name":"LEMUR-2-HOTSPUR-TOM","alt_names":[],"object_type":"PAYLOAD","status":"ACTIVE","operator":null,"country":"US","launch_date":"2025-11-28","launch_site_code":"AFWTR","launch_vehicle":null,"mission":null,"orbit_class":"UNKNOWN","rcs_meters":null,"size_class":null,"mass_kg":null,"dimensions":null,"purposes":["earth_obs"],"wikipedia_slug":null,"has_3d_model":false,"image_url":null,"decayed_at":null,"tle_current":{"epoch":"2026-09-19T23:46:57.222048Z","epoch_age_seconds":58479,"freshness":"FRESH","line1":"1 66786U 25276EA  26262.99094007  .00003431  00000+0  28131-3 0  9999","line2":"2 66786  97.5127 330.3634 0016253 169.2784 190.8790 14.99795715 44337","mean_motion":14.99795715,"eccentricity":0.0016253,"inclination_deg":97.5127,"raan_deg":330.3634,"arg_perigee_deg":169.2784,"mean_anomaly_deg":190.879,"bstar":0.00028131,"rev_number":4433,"period_min":96.013076020823,"perigee_km":556.23819228671,"apogee_km":578.81576761995,"semimajor_km":6945.6639799533,"source":"CELESTRAK","updated_at":"2026-09-20T09:00:34.880822Z"}}}